AIC428 VOBL-VIDP

Flight info

Callsign AIC428
Flight time N/A
Altitude 41000
Route LATID7D LATID Q22 HIA/N0489F400 W20 BAVOX BAVOX6G
Aircraft A359/H-SDE2E3GHIJ3J4J5LM1ORWXY/LB1D1

Departure

Time N/A
Airport Kempegowda International Airport Bengaluru (VOBL)

Arrival

Time 2026-05-05 14:36
Airport Indira Gandhi International Airport (VIDP)
Time Latitude Longitude Altitude Speed Heading
2026-05-05 13:26 21.28064 77.72844 40837 ft 498 kts 347°
2026-05-05 13:27 21.34982 77.71453 40837 ft 498 kts 347°
2026-05-05 13:27 21.41907 77.70059 40837 ft 498 kts 347°
2026-05-05 13:28 21.48808 77.68669 40837 ft 498 kts 347°
2026-05-05 13:28 21.55755 77.67301 40837 ft 498 kts 348°
2026-05-05 13:29 21.62678 77.65984 40837 ft 498 kts 348°
2026-05-05 13:29 21.69595 77.64662 40840 ft 498 kts 348°
2026-05-05 13:30 21.76556 77.63328 40845 ft 498 kts 348°
2026-05-05 13:30 21.83484 77.61996 40851 ft 498 kts 348°
2026-05-05 13:31 21.90415 77.60663 40857 ft 498 kts 348°
2026-05-05 13:31 21.97320 77.59333 40862 ft 498 kts 348°
2026-05-05 13:32 22.04285 77.57989 40865 ft 498 kts 348°
2026-05-05 13:32 22.11257 77.56645 40865 ft 498 kts 348°
2026-05-05 13:33 22.18157 77.55312 40865 ft 498 kts 348°
2026-05-05 13:33 22.25103 77.53963 40865 ft 498 kts 347°
2026-05-05 13:34 22.32055 77.52607 40865 ft 498 kts 347°
2026-05-05 13:34 22.38963 77.51258 40865 ft 498 kts 347°
2026-05-05 13:35 22.45898 77.49902 40865 ft 498 kts 347°
2026-05-05 13:35 22.52797 77.48551 40865 ft 498 kts 347°
2026-05-05 13:36 22.59753 77.47188 40865 ft 498 kts 347°
2026-05-05 13:36 22.66684 77.45828 40865 ft 498 kts 347°
2026-05-05 13:37 22.73574 77.44475 40865 ft 498 kts 347°
2026-05-05 13:37 22.80531 77.43108 40865 ft 498 kts 347°
2026-05-05 13:38 22.87435 77.41749 40865 ft 498 kts 347°
2026-05-05 13:38 22.94407 77.40376 40865 ft 498 kts 347°
2026-05-05 13:39 23.01345 77.39008 40865 ft 499 kts 347°
2026-05-05 13:39 23.08307 77.37632 40865 ft 500 kts 347°
2026-05-05 13:40 23.15252 77.36262 40865 ft 500 kts 347°
2026-05-05 13:40 23.22218 77.34888 40866 ft 500 kts 347°
2026-05-05 13:41 23.29209 77.33733 40866 ft 501 kts 352°
2026-05-05 13:41 23.36280 77.33240 40866 ft 502 kts 355°
2026-05-05 13:42 23.43379 77.32916 40865 ft 503 kts 355°
2026-05-05 13:42 23.50475 77.32594 40865 ft 503 kts 355°
2026-05-05 13:43 23.57571 77.32267 40865 ft 503 kts 355°
2026-05-05 13:43 23.64683 77.31937 40865 ft 503 kts 355°
2026-05-05 13:44 23.71806 77.31603 40865 ft 502 kts 355°
2026-05-05 13:44 23.78874 77.31272 40865 ft 502 kts 355°
2026-05-05 13:45 23.86004 77.30938 40876 ft 503 kts 355°
2026-05-05 13:45 23.93099 77.30605 40885 ft 503 kts 355°
2026-05-05 13:46 24.00189 77.30273 40890 ft 503 kts 355°
2026-05-05 13:46 24.07293 77.29939 40892 ft 503 kts 355°
2026-05-05 13:47 24.14400 77.29605 40892 ft 503 kts 355°
2026-05-05 13:47 24.21487 77.29274 40892 ft 503 kts 355°
2026-05-05 13:48 24.28586 77.28940 40892 ft 503 kts 355°
2026-05-05 13:48 24.35713 77.28604 40892 ft 503 kts 355°
2026-05-05 13:49 24.42800 77.28270 40892 ft 503 kts 355°
2026-05-05 13:49 24.49900 77.27935 40892 ft 503 kts 355°
2026-05-05 13:50 24.56982 77.27602 40892 ft 502 kts 355°
2026-05-05 13:50 24.64088 77.27268 40892 ft 503 kts 355°
2026-05-05 13:51 24.71196 77.26933 40892 ft 502 kts 355°
2026-05-05 13:51 24.78272 77.26627 40892 ft 503 kts 355°
2026-05-05 13:52 24.85386 77.26327 40892 ft 503 kts 355°
2026-05-05 13:52 24.92479 77.26029 40892 ft 503 kts 355°
2026-05-05 13:53 24.99594 77.25731 40892 ft 503 kts 355°
2026-05-05 13:53 25.06708 77.25464 40892 ft 502 kts 354°
2026-05-05 13:54 25.13769 77.25214 40893 ft 501 kts 353°
2026-05-05 13:54 25.20857 77.24953 40893 ft 501 kts 353°
2026-05-05 13:55 25.27957 77.24692 40894 ft 500 kts 353°
2026-05-05 13:55 25.35006 77.24434 40897 ft 501 kts 353°
2026-05-05 13:56 25.42073 77.24176 40903 ft 501 kts 353°
2026-05-05 13:56 25.49170 77.23917 40912 ft 501 kts 353°
2026-05-05 13:57 25.56227 77.23659 40915 ft 501 kts 353°
2026-05-05 13:57 25.63328 77.23402 40918 ft 501 kts 353°
2026-05-05 13:58 25.70399 77.23143 40920 ft 500 kts 353°
2026-05-05 13:58 25.77478 77.22884 40918 ft 500 kts 353°
2026-05-05 13:59 25.88099 77.22497 40920 ft 500 kts 353°
2026-05-05 14:00 25.98711 77.22109 40919 ft 501 kts 353°
2026-05-05 14:00 26.05769 77.21853 40919 ft 501 kts 353°
2026-05-05 14:01 26.12876 77.21595 40921 ft 501 kts 353°
2026-05-05 14:01 26.19925 77.21275 40919 ft 500 kts 353°
2026-05-05 14:02 26.27011 77.20894 40920 ft 500 kts 352°
2026-05-05 14:02 26.34066 77.20522 40919 ft 500 kts 353°
2026-05-05 14:03 26.41131 77.20158 40919 ft 500 kts 353°
2026-05-05 14:03 26.48165 77.19797 40528 ft 494 kts 352°
2026-05-05 14:04 26.51676 77.19616 39809 ft 495 kts 353°
2026-05-05 14:04 26.55179 77.19434 38913 ft 498 kts 352°
2026-05-05 14:04 26.58668 77.19252 38022 ft 500 kts 353°
2026-05-05 14:04 26.62203 77.19069 37175 ft 501 kts 353°
2026-05-05 14:05 26.65760 77.18886 36367 ft 500 kts 353°
2026-05-05 14:05 26.69284 77.18704 35595 ft 499 kts 353°
2026-05-05 14:05 26.72779 77.18525 34761 ft 500 kts 353°
2026-05-05 14:05 26.76304 77.18341 33841 ft 502 kts 353°
2026-05-05 14:06 26.79879 77.18153 32857 ft 504 kts 353°
2026-05-05 14:06 26.83431 77.17966 31862 ft 506 kts 353°
2026-05-05 14:06 26.86993 77.17779 30835 ft 508 kts 353°
2026-05-05 14:06 26.90573 77.17593 29791 ft 509 kts 353°
2026-05-05 14:07 26.94160 77.17408 29040 ft 502 kts 353°
2026-05-05 14:07 26.97655 77.17230 28444 ft 494 kts 353°
2026-05-05 14:07 27.01108 77.17054 27846 ft 485 kts 353°
2026-05-05 14:07 27.04518 77.16878 27241 ft 478 kts 353°
2026-05-05 14:08 27.07883 77.16702 26530 ft 473 kts 353°
2026-05-05 14:08 27.11124 77.16532 25854 ft 468 kts 354°
2026-05-05 14:08 27.14343 77.16367 25275 ft 461 kts 354°
2026-05-05 14:08 27.17528 77.16202 24677 ft 455 kts 354°
2026-05-05 14:09 27.20631 77.16043 24163 ft 448 kts 354°
2026-05-05 14:09 27.23733 77.15884 23675 ft 440 kts 354°
2026-05-05 14:09 27.26744 77.15728 23207 ft 433 kts 354°
2026-05-05 14:09 27.29751 77.15572 22737 ft 427 kts 354°
2026-05-05 14:10 27.32705 77.15420 22272 ft 421 kts 354°
2026-05-05 14:10 27.35609 77.15269 21817 ft 415 kts 355°
2026-05-05 14:10 27.38510 77.15118 21358 ft 410 kts 355°
2026-05-05 14:10 27.41341 77.14972 20908 ft 405 kts 355°
2026-05-05 14:11 27.44146 77.14826 20533 ft 397 kts 355°
2026-05-05 14:11 27.46860 77.14686 20398 ft 383 kts 355°
2026-05-05 14:11 27.49458 77.14552 20255 ft 371 kts 355°
2026-05-05 14:11 27.51995 77.14420 20114 ft 359 kts 355°
2026-05-05 14:12 27.54458 77.14291 19983 ft 347 kts 355°
2026-05-05 14:12 27.56825 77.14168 19868 ft 335 kts 355°
2026-05-05 14:12 27.59143 77.14048 19763 ft 324 kts 355°
2026-05-05 14:12 27.61409 77.13929 19669 ft 313 kts 355°
2026-05-05 14:13 27.63588 77.13892 19582 ft 305 kts
2026-05-05 14:13 27.65732 77.14140 19441 ft 305 kts
2026-05-05 14:13 27.67865 77.14682 19088 ft 306 kts 12°
2026-05-05 14:13 27.69963 77.15337 18764 ft 305 kts 13°
2026-05-05 14:14 27.72038 77.16003 18453 ft 303 kts 13°
2026-05-05 14:14 27.74104 77.16666 18149 ft 302 kts 13°
2026-05-05 14:14 27.76173 77.17328 17847 ft 300 kts 13°
2026-05-05 14:14 27.78200 77.17973 17552 ft 298 kts 13°
2026-05-05 14:15 27.80919 77.18838 17156 ft 296 kts 13°
2026-05-05 14:15 27.82279 77.19270 16957 ft 295 kts 13°
2026-05-05 14:15 27.84302 77.19913 16661 ft 294 kts 13°
2026-05-05 14:15 27.86339 77.20560 16364 ft 292 kts 13°
2026-05-05 14:16 27.88351 77.21199 16070 ft 291 kts 13°
2026-05-05 14:16 27.90340 77.21832 15780 ft 290 kts 13°
2026-05-05 14:16 27.92313 77.22459 15491 ft 289 kts 13°
2026-05-05 14:16 27.94278 77.23084 15205 ft 288 kts 14°
2026-05-05 14:17 27.96253 77.23713 14917 ft 287 kts 14°
2026-05-05 14:17 27.98067 77.24290 14651 ft 286 kts 14°
2026-05-05 14:17 28.00038 77.24918 14362 ft 285 kts 14°
2026-05-05 14:17 28.01950 77.25526 14084 ft 284 kts 14°
2026-05-05 14:18 28.03859 77.26128 13830 ft 286 kts 13°
2026-05-05 14:18 28.05879 77.26631 13847 ft 300 kts
2026-05-05 14:18 28.08011 77.26990 13871 ft 302 kts
2026-05-05 14:18 28.10138 77.27300 13832 ft 299 kts
2026-05-05 14:19 28.12253 77.27601 13494 ft 298 kts
2026-05-05 14:19 28.14348 77.27900 13077 ft 298 kts
2026-05-05 14:19 28.16458 77.28204 12690 ft 298 kts
2026-05-05 14:19 28.18533 77.28504 12322 ft 297 kts
2026-05-05 14:20 28.20623 77.28809 11946 ft 296 kts
2026-05-05 14:20 28.22697 77.29112 11574 ft 295 kts
2026-05-05 14:20 28.24778 77.29418 11207 ft 293 kts
2026-05-05 14:20 28.26855 77.29723 10842 ft 292 kts
2026-05-05 14:21 28.28964 77.30033 10517 ft 289 kts
2026-05-05 14:21 28.31009 77.30334 10260 ft 289 kts
2026-05-05 14:21 28.33047 77.30632 10024 ft 284 kts
2026-05-05 14:21 28.35015 77.30920 9792 ft 279 kts
2026-05-05 14:22 28.37598 77.30921 9497 ft 270 kts 342°
2026-05-05 14:22 28.38739 77.30293 9403 ft 265 kts 324°
2026-05-05 14:22 28.39965 77.28700 9275 ft 266 kts 297°
2026-05-05 14:22 28.40555 77.26656 9156 ft 268 kts 285°
2026-05-05 14:23 28.40982 77.24590 9031 ft 265 kts 284°
2026-05-05 14:23 28.41402 77.22508 8816 ft 260 kts 284°
2026-05-05 14:23 28.41817 77.20506 8616 ft 255 kts 285°
2026-05-05 14:23 28.42238 77.18523 8414 ft 250 kts 285°
2026-05-05 14:24 28.42655 77.16579 8210 ft 245 kts 285°
2026-05-05 14:24 28.43068 77.14668 8014 ft 241 kts 285°
2026-05-05 14:24 28.43472 77.12800 7902 ft 232 kts 285°
2026-05-05 14:24 28.43852 77.11035 7893 ft 219 kts 285°
2026-05-05 14:25 28.44218 77.09341 7893 ft 218 kts 285°
2026-05-05 14:25 28.44590 77.07624 7893 ft 218 kts 285°
2026-05-05 14:25 28.44955 77.05933 7893 ft 218 kts 285°
2026-05-05 14:25 28.45327 77.04206 7893 ft 218 kts 285°
2026-05-05 14:26 28.45695 77.02501 7786 ft 218 kts 285°
2026-05-05 14:26 28.46060 77.00800 7557 ft 216 kts 285°
2026-05-05 14:26 28.46422 76.99114 7301 ft 216 kts 285°
2026-05-05 14:26 28.46785 76.97429 7053 ft 215 kts 285°
2026-05-05 14:27 28.47144 76.95761 6810 ft 214 kts 285°
2026-05-05 14:27 28.47503 76.94087 6566 ft 213 kts 285°
2026-05-05 14:27 28.47864 76.92406 6321 ft 213 kts 285°
2026-05-05 14:27 28.48217 76.90758 6082 ft 212 kts 285°
2026-05-05 14:28 28.48573 76.89095 5841 ft 211 kts 285°
2026-05-05 14:28 28.48928 76.87440 5601 ft 210 kts 285°
2026-05-05 14:28 28.49288 76.85801 5362 ft 209 kts 290°
2026-05-05 14:28 28.50117 76.84461 5068 ft 205 kts 330°
2026-05-05 14:29 28.51489 76.84080 4804 ft 203 kts
2026-05-05 14:29 28.52914 76.84270 4580 ft 201 kts
2026-05-05 14:29 28.54324 76.84486 4339 ft 201 kts
2026-05-05 14:29 28.55739 76.84693 4104 ft 201 kts
2026-05-05 14:30 28.57163 76.84892 3871 ft 200 kts
2026-05-05 14:30 28.58555 76.85079 3644 ft 200 kts
2026-05-05 14:30 28.59969 76.85268 3413 ft 200 kts
2026-05-05 14:30 28.61367 76.85532 3169 ft 200 kts 23°
2026-05-05 14:31 28.62340 76.86610 2945 ft 198 kts 70°
2026-05-05 14:31 28.62289 76.88166 2763 ft 195 kts 114°
2026-05-05 14:31 28.61650 76.89536 2626 ft 186 kts 117°
2026-05-05 14:31 28.61080 76.90830 2510 ft 171 kts 113°
2026-05-05 14:32 28.60615 76.92089 2508 ft 167 kts 109°
2026-05-05 14:32 28.60242 76.93367 2506 ft 167 kts 105°
2026-05-05 14:32 28.59925 76.94656 2504 ft 167 kts 103°
2026-05-05 14:32 28.59622 76.95959 2504 ft 167 kts 103°
2026-05-05 14:33 28.59324 76.97257 2504 ft 166 kts 103°
2026-05-05 14:33 28.59026 76.98553 2499 ft 167 kts 103°
2026-05-05 14:33 28.58722 76.99864 2328 ft 166 kts 103°
2026-05-05 14:33 28.58428 77.01129 2110 ft 156 kts 103°
2026-05-05 14:34 28.58152 77.02316 1892 ft 147 kts 103°
2026-05-05 14:34 28.57888 77.03457 1700 ft 147 kts 103°
2026-05-05 14:34 28.57621 77.04610 1504 ft 146 kts 103°
2026-05-05 14:34 28.57358 77.05747 1308 ft 146 kts 103°
2026-05-05 14:35 28.57096 77.06881 1114 ft 145 kts 103°
2026-05-05 14:35 28.56833 77.08015 917 ft 145 kts 103°
2026-05-05 14:35 28.56572 77.09134 802 ft 138 kts 105°
2026-05-05 14:35 28.56359 77.10045 790 ft 90 kts 103°
2026-05-05 14:36 28.56246 77.10540 790 ft 36 kts 104°
2026-05-05 14:36 28.56207 77.10700 790 ft 17 kts 109°
2026-05-05 14:36 28.56150 77.10830 790 ft 18 kts 126°
2026-05-05 14:36 28.56074 77.10925 790 ft 13 kts 135°
2026-05-05 14:37 28.55991 77.10944 790 ft 11 kts 232°
2026-05-05 14:37 28.55980 77.10880 790 ft 12 kts 274°
2026-05-05 14:37 28.55999 77.10777 790 ft 13 kts 284°
2026-05-05 14:37 28.56024 77.10664 790 ft 15 kts 285°
2026-05-05 14:38 28.56053 77.10541 790 ft 16 kts 284°
2026-05-05 14:38 28.56084 77.10407 790 ft 17 kts 284°
2026-05-05 14:38 28.56117 77.10262 790 ft 19 kts 285°
2026-05-05 14:38 28.56153 77.10111 790 ft 20 kts 285°
2026-05-05 14:39 28.56191 77.09949 790 ft 20 kts 284°
2026-05-05 14:39 28.56220 77.09814 790 ft 13 kts 284°
2026-05-05 14:39 28.56200 77.09720 790 ft 13 kts 217°
2026-05-05 14:39 28.56104 77.09684 790 ft 14 kts 193°
2026-05-05 14:40 28.56006 77.09638 790 ft 11 kts 238°
2026-05-05 14:40 28.56004 77.09542 790 ft 13 kts 280°
2026-05-05 14:40 28.56027 77.09433 790 ft 14 kts 284°
2026-05-05 14:40 28.56053 77.09316 790 ft 15 kts 284°
2026-05-05 14:41 28.56084 77.09187 790 ft 17 kts 285°
2026-05-05 14:41 28.56116 77.09050 790 ft 18 kts 285°
2026-05-05 14:41 28.56151 77.08904 790 ft 19 kts 285°
2026-05-05 14:41 28.56188 77.08746 790 ft 20 kts 282°
2026-05-05 14:42 28.56223 77.08592 790 ft 13 kts 285°
2026-05-05 14:42 28.56250 77.08484 790 ft 11 kts 292°
2026-05-05 14:42 28.56304 77.08465 790 ft 7 kts
2026-05-05 14:42 28.56343 77.08472 790 ft 0 kts 16°